| time (UTC) | temp C | wind direction | speed KPH | gust KPH | rain 1hr cm | rain 24hr cm | rain mn cm | humidity % | barometer mb |
| 20260903220543 | 16 | 275 | 3.2 | 8.0 | 0.00 | 0.00 | 0.00 | 61 | 1021.2 |
| 20260903220043 | 15 | 269 | 1.6 | 6.4 | 0.00 | 0.00 | 0.00 | 62 | 1021.0 |
| 20260903215543 | 15 | 250 | 3.2 | 6.4 | 0.00 | 0.00 | 0.00 | 62 | 1021.1 |
| 20260903215043 | 15 | 243 | 0.0 | 8.0 | 0.00 | 0.00 | 0.00 | 63 | 1021.1 |
| 20260903214555 | 15 | 243 | 1.6 | 8.0 | 0.00 | 0.00 | 0.00 | 63 | 1021.0 |
| 20260903214042 | 15 | 240 | 3.2 | 8.0 | 0.00 | 0.00 | 0.00 | 63 | 1020.9 |
| 20260903213539 | 15 | 251 | 1.6 | 4.8 | 0.00 | 0.00 | 0.00 | 63 | 1021.1 |
| 20260903213045 | 15 | 273 | 0.0 | 6.4 | 0.00 | 0.00 | 0.00 | 65 | 1021.0 |
| 20260903212536 | 15 | 271 | 3.2 | 6.4 | 0.00 | 0.00 | 0.00 | 65 | 1020.8 |
| 20260903212035 | 14 | 264 | 1.6 | 4.8 | 0.00 | 0.00 | 0.00 | 66 | 1020.7 |
| 20260903211535 | 14 | 295 | 1.6 | 3.2 | 0.00 | 0.00 | 0.00 | 66 | 1020.8 |
| 20260903211032 | 14 | 295 | 1.6 | 6.4 | 0.00 | 0.00 | 0.00 | 66 | 1020.8 |
| 20260903210531 | 14 | 295 | 3.2 | 6.4 | 0.00 | 0.00 | 0.00 | 67 | 1020.6 |
| 20260903210029 | 14 | 292 | 3.2 | 4.8 | 0.00 | 0.00 | 0.00 | 68 | 1020.5 |
| 20260903205527 | 13 | 292 | 3.2 | 4.8 | 0.00 | 0.00 | 0.00 | 69 | 1020.5 |
| 20260903205028 | 13 | 292 | 3.2 | 4.8 | 0.00 | 0.00 | 0.00 | 69 | 1020.5 |
| 20260903204526 | 13 | 252 | 1.6 | 4.8 | 0.00 | 0.00 | 0.00 | 70 | 1020.4 |
| 20260903204025 | 13 | 250 | 3.2 | 4.8 | 0.00 | 0.00 | 0.00 | 71 | 1020.3 |
| 20260903203528 | 13 | 282 | 1.6 | 3.2 | 0.00 | 0.00 | 0.00 | 72 | 1020.3 |
| 20260903203025 | 13 | 282 | 0.0 | 4.8 | 0.00 | 0.00 | 0.00 | 72 | 1020.3 |
| 20260903202526 | 13 | 282 | 1.6 | 6.4 | 0.00 | 0.00 | 0.00 | 73 | 1020.2 |
| 20260903202023 | 13 | 281 | 3.2 | 6.4 | 0.00 | 0.00 | 0.00 | 73 | 1020.1 |
| 20260903201532 | 13 | 281 | 3.2 | 6.4 | 0.00 | 0.00 | 0.00 | 73 | 1020.0 |
| 20260903201025 | 13 | 271 | 0.0 | 3.2 | 0.00 | 0.00 | 0.00 | 72 | 1020.0 |
| 20260903200526 | 13 | 271 | 1.6 | 4.8 | 0.00 | 0.00 | 0.00 | 72 | 1020.0 |
| 20260903200021 | 13 | 271 | 3.2 | 6.4 | 0.00 | 0.00 | 0.00 | 71 | 1019.9 |
| 20260903195521 | 13 | 237 | 3.2 | 6.4 | 0.00 | 0.00 | 0.00 | 71 | 1019.9 |
| 20260903195024 | 13 | 273 | 3.2 | 6.4 | 0.00 | 0.00 | 0.00 | 71 | 1019.9 |
| 20260903194524 | 13 | 278 | 0.0 | 4.8 | 0.00 | 0.00 | 0.00 | 71 | 1020.0 |
| 20260903194018 | 13 | 277 | 1.6 | 6.4 | 0.00 | 0.00 | 0.00 | 71 | 1019.9 |
| 20260903193517 | 13 | 279 | 3.2 | 6.4 | 0.00 | 0.00 | 0.00 | 72 | 1019.8 |
| 20260903193017 | 13 | 283 | 3.2 | 6.4 | 0.00 | 0.00 | 0.00 | 72 | 1019.8 |
| 20260903192521 | 13 | 287 | 0.0 | 3.2 | 0.00 | 0.00 | 0.00 | 71 | 1019.9 |
| 20260903192018 | 13 | 287 | 0.0 | 4.8 | 0.00 | 0.00 | 0.00 | 71 | 1019.8 |
| 20260903191515 | 13 | 287 | 0.0 | 6.4 | 0.00 | 0.00 | 0.00 | 71 | 1019.8 |
| 20260903191015 | 13 | 287 | 3.2 | 6.4 | 0.00 | 0.00 | 0.00 | 71 | 1019.7 |
| 20260903190516 | 13 | 314 | 1.6 | 4.8 | 0.00 | 0.00 | 0.00 | 72 | 1019.8 |
| 20260903190014 | 13 | 314 | 1.6 | 6.4 | 0.00 | 0.00 | 0.00 | 72 | 1019.8 |
| 20260903185512 | 13 | 315 | 3.2 | 6.4 | 0.00 | 0.00 | 0.00 | 72 | 1019.8 |
| 20260903185012 | 13 | 319 | 3.2 | 4.8 | 0.00 | 0.00 | 0.00 | 72 | 1019.7 |
| 20260903184511 | 13 | 303 | 3.2 | 4.8 | 0.00 | 0.00 | 0.00 | 72 | 1019.6 |
| 20260903184010 | 13 | 305 | 3.2 | 6.4 | 0.00 | 0.00 | 0.00 | 72 | 1019.5 |
| 20260903183508 | 13 | 323 | 3.2 | 4.8 | 0.00 | 0.00 | 0.00 | 72 | 1019.5 |
| 20260903183008 | 13 | 332 | 0.0 | 4.8 | 0.00 | 0.00 | 0.00 | 72 | 1019.5 |
| 20260903182510 | 14 | 331 | 3.2 | 6.4 | 0.00 | 0.00 | 0.00 | 72 | 1019.3 |
| 20260903182005 | 14 | 284 | 3.2 | 6.4 | 0.00 | 0.00 | 0.00 | 72 | 1019.2 |
| 20260903181506 | 14 | 218 | 0.0 | 3.2 | 0.00 | 0.00 | 0.00 | 71 | 1019.2 |
| 20260903181004 | 14 | 218 | 0.0 | 3.2 | 0.00 | 0.00 | 0.00 | 71 | 1019.2 |
| 20260903180506 | 14 | 207 | 0.0 | 3.2 | 0.00 | 0.00 | 0.00 | 70 | 1019.2 |
| 20260903180002 | 14 | 219 | 0.0 | 3.2 | 0.00 | 0.00 | 0.00 | 70 | 1019.1 |
| 20260903175505 | 14 | 219 | 0.0 | 3.2 | 0.00 | 0.00 | 0.00 | 70 | 1019.1 |
| 20260903175001 | 14 | 219 | 0.0 | 4.8 | 0.00 | 0.00 | 0.00 | 70 | 1019.0 |
| 20260903174602 | 14 | 168 | 0.0 | 4.8 | 0.00 | 0.00 | 0.00 | 70 | 1018.9 |
| 20260903174104 | 14 | 217 | 1.6 | 4.8 | 0.00 | 0.00 | 0.00 | 70 | 1018.8 |
| 20260903173559 | 15 | 217 | 1.6 | 4.8 | 0.00 | 0.00 | 0.00 | 70 | 1018.9 |
| 20260903173058 | 15 | 217 | 0.0 | 3.2 | 0.00 | 0.00 | 0.00 | 70 | 1018.9 |
| 20260903172559 | 15 | 217 | 0.0 | 3.2 | 0.00 | 0.00 | 0.00 | 69 | 1018.9 |
| 20260903172101 | 15 | 217 | 0.0 | 3.2 | 0.00 | 0.00 | 0.00 | 68 | 1018.7 |
| 20260903171555 | 15 | 217 | 0.0 | 6.4 | 0.00 | 0.00 | 0.00 | 67 | 1018.6 |
| 20260903171056 | 15 | 217 | 0.0 | 8.0 | 0.00 | 0.00 | 0.00 | 67 | 1018.7 |
| 20260903170554 | 15 | 164 | 0.0 | 4.8 | 0.00 | 0.00 | 0.00 | 67 | 1018.8 |
| 20260903165553 | 15 | 220 | 0.0 | 3.2 | 0.00 | 0.00 | 0.00 | 66 | 1018.7 |
| 20260903165052 | 15 | 254 | 0.0 | 4.8 | 0.00 | 0.00 | 0.00 | 66 | 1018.7 |
| 20260903164551 | 15 | 304 | 1.6 | 4.8 | 0.00 | 0.00 | 0.00 | 65 | 1018.8 |
| 20260903164051 | 15 | 146 | 1.6 | 6.4 | 0.00 | 0.00 | 0.00 | 65 | 1018.8 |
| 20260903163550 | 15 | 139 | 1.6 | 6.4 | 0.00 | 0.00 | 0.00 | 65 | 1018.8 |
| 20260903163049 | 15 | 87 | 3.2 | 6.4 | 0.00 | 0.00 | 0.00 | 65 | 1018.8 |
| 20260903162548 | 15 | 179 | 1.6 | 8.0 | 0.00 | 0.00 | 0.00 | 64 | 1018.7 |
| 20260903162048 | 16 | 192 | 1.6 | 9.7 | 0.00 | 0.00 | 0.00 | 64 | 1018.8 |
| 20260903161547 | 16 | 148 | 3.2 | 8.0 | 0.00 | 0.00 | 0.00 | 64 | 1018.9 |
| 20260903161046 | 16 | 135 | 1.6 | 9.7 | 0.00 | 0.00 | 0.00 | 64 | 1019.0 |
| 20260903160546 | 16 | 164 | 1.6 | 11.3 | 0.00 | 0.00 | 0.00 | 64 | 1018.9 |
| 20260903160046 | 16 | 174 | 3.2 | 6.4 | 0.00 | 0.00 | 0.00 | 64 | 1018.9 |
| 20260903155545 | 16 | 221 | 1.6 | 4.8 | 0.00 | 0.00 | 0.00 | 64 | 1018.9 |
| 20260903155045 | 16 | 144 | 1.6 | 6.4 | 0.00 | 0.00 | 0.00 | 64 | 1018.9 |
| 20260903154548 | 16 | 140 | 1.6 | 6.4 | 0.00 | 0.00 | 0.00 | 63 | 1019.0 |
| 20260903154044 | 16 | 134 | 1.6 | 8.0 | 0.00 | 0.00 | 0.00 | 64 | 1019.0 |
| 20260903153542 | 16 | 218 | 1.6 | 8.0 | 0.00 | 0.00 | 0.00 | 63 | 1018.9 |
| 20260903153051 | 16 | 220 | 1.6 | 4.8 | 0.00 | 0.00 | 0.00 | 63 | 1018.9 |
| 20260903152543 | 16 | 161 | 1.6 | 4.8 | 0.00 | 0.00 | 0.00 | 63 | 1018.9 |
| 20260903152042 | 16 | 144 | 0.0 | 4.8 | 0.00 | 0.00 | 0.00 | 62 | 1018.9 |
| 20260903151540 | 16 | 146 | 1.6 | 6.4 | 0.00 | 0.00 | 0.00 | 62 | 1018.7 |
| 20260903151037 | 17 | 193 | 0.0 | 11.3 | 0.00 | 0.00 | 0.00 | 62 | 1018.6 |
| 20260903150540 | 17 | 167 | 3.2 | 11.3 | 0.00 | 0.00 | 0.00 | 61 | 1018.6 |
| 20260903150035 | 17 | 219 | 3.2 | 12.9 | 0.00 | 0.00 | 0.00 | 61 | 1018.5 |
| 20260903145537 | 17 | 209 | 3.2 | 11.3 | 0.00 | 0.00 | 0.00 | 61 | 1018.5 |
| 20260903145037 | 17 | 213 | 3.2 | 14.5 | 0.00 | 0.00 | 0.00 | 61 | 1018.4 |
| 20260903144535 | 17 | 213 | 4.8 | 14.5 | 0.00 | 0.00 | 0.00 | 61 | 1018.3 |
| 20260903144036 | 17 | 213 | 1.6 | 14.5 | 0.00 | 0.00 | 0.00 | 61 | 1018.4 |
| 20260903143536 | 17 | 199 | 4.8 | 14.5 | 0.00 | 0.00 | 0.00 | 60 | 1018.4 |
| 20260903143042 | 17 | 219 | 4.8 | 9.7 | 0.00 | 0.00 | 0.00 | 60 | 1018.4 |
| 20260903142532 | 17 | 220 | 3.2 | 8.0 | 0.00 | 0.00 | 0.00 | 60 | 1018.2 |
| 20260903142032 | 17 | 199 | 1.6 | 8.0 | 0.00 | 0.00 | 0.00 | 60 | 1018.3 |
| 20260903141537 | 17 | 190 | 1.6 | 8.0 | 0.00 | 0.00 | 0.00 | 60 | 1018.2 |
| 20260903141028 | 17 | 240 | 0.0 | 8.0 | 0.00 | 0.00 | 0.00 | 60 | 1018.1 |
| 20260903140527 | 17 | 237 | 3.2 | 8.0 | 0.00 | 0.00 | 0.00 | 60 | 1018.1 |
| 20260903140028 | 17 | 244 | 4.8 | 9.7 | 0.00 | 0.00 | 0.00 | 60 | 1018.0 |
| 20260903135526 | 17 | 208 | 3.2 | 8.0 | 0.00 | 0.00 | 0.00 | 60 | 1017.9 |
| 20260903135026 | 17 | 190 | 1.6 | 8.0 | 0.00 | 0.00 | 0.00 | 60 | 1017.9 |
| 20260903134526 | 17 | 259 | 1.6 | 9.7 | 0.00 | 0.00 | 0.00 | 60 | 1017.8 |
| 20260903134025 | 17 | 210 | 3.2 | 9.7 | 0.00 | 0.00 | 0.00 | 60 | 1017.7 |
| 20260903133525 | 17 | 217 | 1.6 | 6.4 | 0.00 | 0.00 | 0.00 | 59 | 1017.7 |
| 20260903133026 | 17 | 198 | 3.2 | 8.0 | 0.00 | 0.00 | 0.00 | 58 | 1017.9 |
| 20260903132526 | 17 | 211 | 0.0 | 4.8 | 0.00 | 0.00 | 0.00 | 58 | 1017.9 |
| 20260903132024 | 18 | 214 | 0.0 | 4.8 | 0.00 | 0.00 | 0.00 | 58 | 1017.8 |
| 20260903131523 | 18 | 237 | 1.6 | 8.0 | 0.00 | 0.00 | 0.00 | 58 | 1017.7 |
| 20260903131025 | 18 | 198 | 1.6 | 8.0 | 0.00 | 0.00 | 0.00 | 58 | 1017.6 |
| 20260903130525 | 18 | 249 | 4.8 | 8.0 | 0.00 | 0.00 | 0.00 | 58 | 1017.5 |
| 20260903130022 | 18 | 255 | 3.2 | 6.4 | 0.00 | 0.00 | 0.00 | 59 | 1017.6 |
| 20260903125521 | 18 | 254 | 0.0 | 8.0 | 0.00 | 0.00 | 0.00 | 56 | 1017.6 |
| 20260903125024 | 18 | 254 | 1.6 | 11.3 | 0.00 | 0.00 | 0.00 | 55 | 1017.5 |
| 20260903124519 | 18 | 236 | 4.8 | 11.3 | 0.00 | 0.00 | 0.00 | 55 | 1017.3 |
| 20260903124020 | 18 | 244 | 4.8 | 11.3 | 0.00 | 0.00 | 0.00 | 54 | 1017.2 |
| 20260903123518 | 18 | 274 | 6.4 | 9.7 | 0.00 | 0.00 | 0.00 | 53 | 1017.1 |
| 20260903123018 | 18 | 244 | 3.2 | 8.0 | 0.00 | 0.00 | 0.00 | 52 | 1017.1 |
| 20260903122518 | 18 | 273 | 3.2 | 4.8 | 0.00 | 0.00 | 0.00 | 52 | 1017.1 |
| 20260903122017 | 19 | 267 | 1.6 | 6.4 | 0.00 | 0.00 | 0.00 | 51 | 1017.1 |
| 20260903121516 | 19 | 273 | 3.2 | 11.3 | 0.00 | 0.00 | 0.00 | 51 | 1016.9 |
| 20260903121015 | 19 | 254 | 4.8 | 11.3 | 0.00 | 0.00 | 0.00 | 51 | 1016.8 |
| 20260903120515 | 19 | 252 | 3.2 | 8.0 | 0.00 | 0.00 | 0.00 | 51 | 1016.8 |
| 20260903120015 | 19 | 254 | 4.8 | 8.0 | 0.00 | 0.00 | 0.00 | 51 | 1016.8 |
| 20260903115515 | 19 | 271 | 1.6 | 3.2 | 0.00 | 0.00 | 0.00 | 51 | 1016.9 |
| 20260903115015 | 20 | 293 | 0.0 | 1.6 | 0.00 | 0.00 | 0.00 | 50 | 1016.8 |
| 20260903114515 | 20 | 293 | 0.0 | 11.3 | 0.00 | 0.00 | 0.00 | 50 | 1016.9 |
| 20260903114013 | 20 | 293 | 3.2 | 12.9 | 0.00 | 0.00 | 0.00 | 49 | 1016.7 |
| 20260903113512 | 20 | 283 | 6.4 | 14.5 | 0.00 | 0.00 | 0.00 | 48 | 1016.6 |
| 20260903113012 | 20 | 263 | 6.4 | 14.5 | 0.00 | 0.00 | 0.00 | 48 | 1016.4 |
| 20260903112511 | 20 | 288 | 6.4 | 12.9 | 0.00 | 0.00 | 0.00 | 47 | 1016.3 |
| 20260903112010 | 20 | 277 | 8.0 | 12.9 | 0.00 | 0.00 | 0.00 | 47 | 1016.2 |
| 20260903111513 | 20 | 262 | 6.4 | 12.9 | 0.00 | 0.00 | 0.00 | 47 | 1016.2 |
| 20260903111009 | 20 | 261 | 4.8 | 12.9 | 0.00 | 0.00 | 0.00 | 47 | 1016.2 |
| 20260903110511 | 21 | 248 | 3.2 | 14.5 | 0.00 | 0.00 | 0.00 | 46 | 1016.1 |
| 20260903110010 | 21 | 257 | 4.8 | 14.5 | 0.00 | 0.00 | 0.00 | 46 | 1016.0 |
| 20260903105507 | 21 | 238 | 6.4 | 14.5 | 0.00 | 0.00 | 0.00 | 46 | 1015.9 |
| 20260903105006 | 21 | 269 | 6.4 | 14.5 | 0.00 | 0.00 | 0.00 | 46 | 1015.9 |
| 20260903104509 | 21 | 246 | 6.4 | 17.7 | 0.00 | 0.00 | 0.00 | 47 | 1015.7 |
| 20260903104005 | 21 | 232 | 8.0 | 16.1 | 0.00 | 0.00 | 0.00 | 46 | 1015.7 |
| 20260903103507 | 21 | 282 | 6.4 | 12.9 | 0.00 | 0.00 | 0.00 | 46 | 1015.7 |
| 20260903103004 | 21 | 266 | 6.4 | 14.5 | 0.00 | 0.00 | 0.00 | 46 | 1015.6 |
| 20260903102504 | 21 | 288 | 8.0 | 16.1 | 0.00 | 0.00 | 0.00 | 45 | 1015.5 |
| 20260903102003 | 21 | 274 | 8.0 | 19.3 | 0.00 | 0.00 | 0.00 | 45 | 1015.4 |
| 20260903101502 | 21 | 231 | 8.0 | 19.3 | 0.00 | 0.00 | 0.00 | 46 | 1015.2 |
| 20260903101101 | 21 | 280 | 9.7 | 16.1 | 0.00 | 0.00 | 0.00 | 46 | 1015.1 |
| 20260903100600 | 21 | 232 | 8.0 | 16.1 | 0.00 | 0.00 | 0.00 | 46 | 1015.1 |
| 20260903100100 | 21 | 281 | 6.4 | 19.3 | 0.00 | 0.00 | 0.00 | 46 | 1015.1 |
| 20260903095559 | 21 | 269 | 9.7 | 19.3 | 0.00 | 0.00 | 0.00 | 47 | 1015.0 |
| 20260903095105 | 21 | 229 | 8.0 | 17.7 | 0.00 | 0.00 | 0.00 | 47 | 1014.9 |
| 20260903094600 | 21 | 293 | 8.0 | 24.1 | 0.00 | 0.00 | 0.00 | 47 | 1014.9 |
| 20260903094057 | 21 | 259 | 9.7 | 24.1 | 0.00 | 0.00 | 0.00 | 47 | 1014.8 |
| 20260903093557 | 21 | 277 | 11.3 | 24.1 | 0.00 | 0.00 | 0.00 | 47 | 1014.7 |
| 20260903093103 | 21 | 292 | 11.3 | 17.7 | 0.00 | 0.00 | 0.00 | 48 | 1014.7 |
| 20260903092555 | 22 | 263 | 8.0 | 17.7 | 0.00 | 0.00 | 0.00 | 48 | 1014.6 |
| 20260903092054 | 22 | 287 | 9.7 | 17.7 | 0.00 | 0.00 | 0.00 | 48 | 1014.5 |
| 20260903091554 | 22 | 256 | 8.0 | 16.1 | 0.00 | 0.00 | 0.00 | 47 | 1014.5 |
| 20260903091053 | 22 | 266 | 6.4 | 20.9 | 0.00 | 0.00 | 0.00 | 47 | 1014.4 |
| 20260903090555 | 22 | 284 | 8.0 | 19.3 | 0.00 | 0.00 | 0.00 | 47 | 1014.2 |
| 20260903090051 | 22 | 238 | 9.7 | 19.3 | 0.00 | 0.00 | 0.00 | 46 | 1014.1 |
| 20260903085551 | 22 | 238 | 9.7 | 19.3 | 0.00 | 0.00 | 0.00 | 46 | 1014.1 |
| 20260903085050 | 22 | 263 | 6.4 | 20.9 | 0.00 | 0.00 | 0.00 | 45 | 1013.9 |
| 20260903084555 | 22 | 273 | 8.0 | 25.7 | 0.00 | 0.00 | 0.00 | 45 | 1013.8 |
| 20260903084049 | 22 | 227 | 12.9 | 25.7 | 0.00 | 0.00 | 0.00 | 45 | 1013.7 |
| 20260903083547 | 22 | 271 | 11.3 | 22.5 | 0.00 | 0.00 | 0.00 | 45 | 1013.5 |
| 20260903083055 | 22 | 285 | 12.9 | 22.5 | 0.00 | 0.00 | 0.00 | 45 | 1013.3 |
| 20260903082547 | 23 | 273 | 11.3 | 20.9 | 0.00 | 0.00 | 0.00 | 44 | 1013.2 |
| 20260903082047 | 23 | 261 | 11.3 | 19.3 | 0.00 | 0.00 | 0.00 | 44 | 1013.1 |
| 20260903081603 | 23 | 281 | 11.3 | 24.1 | 0.00 | 0.00 | 0.00 | 43 | 1012.9 |
| 20260903081046 | 23 | 260 | 11.3 | 24.1 | 0.00 | 0.00 | 0.00 | 42 | 1012.8 |
| 20260903080544 | 23 | 239 | 9.7 | 22.5 | 0.00 | 0.00 | 0.00 | 42 | 1012.8 |
| 20260903080045 | 23 | 240 | 8.0 | 22.5 | 0.00 | 0.00 | 0.00 | 42 | 1012.7 |
| 20260903075544 | 23 | 282 | 12.9 | 22.5 | 0.00 | 0.00 | 0.00 | 41 | 1012.7 |
| 20260903075044 | 23 | 290 | 6.4 | 16.1 | 0.00 | 0.00 | 0.00 | 40 | 1012.5 |
| 20260903074548 | 23 | 236 | 6.4 | 16.1 | 0.00 | 0.00 | 0.00 | 40 | 1012.4 |
| 20260903074044 | 24 | 274 | 4.8 | 16.1 | 0.00 | 0.00 | 0.00 | 38 | 1012.2 |
| 20260903073544 | 24 | 241 | 4.8 | 16.1 | 0.00 | 0.00 | 0.00 | 38 | 1012.1 |
| 20260903073044 | 24 | 242 | 6.4 | 16.1 | 0.00 | 0.00 | 0.00 | 37 | 1012.0 |
| 20260903072546 | 25 | 211 | 3.2 | 16.1 | 0.00 | 0.00 | 0.00 | 38 | 1012.0 |
| 20260903072044 | 25 | 239 | 3.2 | 9.7 | 0.00 | 0.00 | 0.00 | 38 | 1012.0 |
| 20260903071551 | 25 | 266 | 3.2 | 11.3 | 0.00 | 0.00 | 0.00 | 37 | 1012.0 |
| 20260903071043 | 25 | 250 | 4.8 | 11.3 | 0.00 | 0.00 | 0.00 | 36 | 1011.9 |
| 20260903070545 | 26 | 226 | 3.2 | 17.7 | 0.00 | 0.00 | 0.00 | 35 | 1011.7 |
| 20260903070042 | 26 | 254 | 6.4 | 17.7 | 0.00 | 0.00 | 0.00 | 35 | 1011.7 |
| 20260903065543 | 26 | 246 | 6.4 | 17.7 | 0.00 | 0.00 | 0.00 | 34 | 1011.5 |
| 20260903065042 | 26 | 275 | 9.7 | 17.7 | 0.00 | 0.00 | 0.00 | 34 | 1011.5 |
| 20260903064548 | 26 | 280 | 6.4 | 17.7 | 0.00 | 0.00 | 0.00 | 34 | 1011.4 |
| 20260903064042 | 26 | 302 | 6.4 | 17.7 | 0.00 | 0.00 | 0.00 | 34 | 1011.3 |
| 20260903063541 | 26 | 242 | 6.4 | 17.7 | 0.00 | 0.00 | 0.00 | 34 | 1011.3 |
| 20260903063048 | 27 | 241 | 3.2 | 17.7 | 0.00 | 0.00 | 0.00 | 34 | 1011.1 |
| 20260903062542 | 27 | 268 | 9.7 | 17.7 | 0.00 | 0.00 | 0.00 | 33 | 1011.1 |
| 20260903062042 | 27 | 237 | 6.4 | 19.3 | 0.00 | 0.00 | 0.00 | 34 | 1011.0 |
| 20260903061542 | 27 | 258 | 8.0 | 19.3 | 0.00 | 0.00 | 0.00 | 33 | 1011.1 |
| 20260903061041 | 27 | 231 | 4.8 | 16.1 | 0.00 | 0.00 | 0.00 | 32 | 1011.1 |
| 20260903060541 | 27 | 240 | 4.8 | 16.1 | 0.00 | 0.00 | 0.00 | 32 | 1011.0 |
| 20260903060043 | 27 | 244 | 6.4 | 17.7 | 0.00 | 0.00 | 0.00 | 33 | 1011.0 |
| 20260903055544 | 27 | 229 | 4.8 | 17.7 | 0.00 | 0.00 | 0.00 | 32 | 1010.9 |
| 20260903055040 | 27 | 244 | 3.2 | 14.5 | 0.00 | 0.00 | 0.00 | 31 | 1010.9 |
| 20260903054540 | 27 | 251 | 1.6 | 14.5 | 0.00 | 0.00 | 0.00 | 31 | 1010.8 |
| 20260903054040 | 27 | 231 | 4.8 | 14.5 | 0.00 | 0.00 | 0.00 | 31 | 1010.7 |
| 20260903053539 | 27 | 215 | 6.4 | 16.1 | 0.00 | 0.00 | 0.00 | 30 | 1010.8 |
| 20260903053040 | 27 | 255 | 6.4 | 16.1 | 0.00 | 0.00 | 0.00 | 30 | 1010.7 |
| 20260903052540 | 27 | 200 | 6.4 | 14.5 | 0.00 | 0.00 | 0.00 | 29 | 1010.6 |
| 20260903052040 | 27 | 229 | 6.4 | 17.7 | 0.00 | 0.00 | 0.00 | 30 | 1010.6 |
| 20260903051540 | 27 | 220 | 6.4 | 24.1 | 0.00 | 0.00 | 0.00 | 30 | 1010.5 |
| 20260903051043 | 27 | 277 | 9.7 | 24.1 | 0.00 | 0.00 | 0.00 | 31 | 1010.5 |
| 20260903050539 | 27 | 246 | 11.3 | 19.3 | 0.00 | 0.00 | 0.00 | 30 | 1010.4 |
| 20260903050045 | 27 | 238 | 11.3 | 25.7 | 0.00 | 0.00 | 0.00 | 30 | 1010.3 |
| 20260903045539 | 27 | 217 | 8.0 | 25.7 | 0.00 | 0.00 | 0.00 | 29 | 1010.3 |
| 20260903045041 | 28 | 200 | 6.4 | 16.1 | 0.00 | 0.00 | 0.00 | 28 | 1010.2 |
| 20260903044545 | 28 | 227 | 4.8 | 16.1 | 0.00 | 0.00 | 0.00 | 29 | 1010.1 |
| 20260903044038 | 28 | 168 | 8.0 | 22.5 | 0.00 | 0.00 | 0.00 | 28 | 1010.1 |
| 20260903043539 | 28 | 226 | 6.4 | 22.5 | 0.00 | 0.00 | 0.00 | 28 | 1010.1 |
| 20260903043037 | 28 | 208 | 8.0 | 19.3 | 0.00 | 0.00 | 0.00 | 28 | 1010.1 |
| 20260903042537 | 28 | 234 | 6.4 | 17.7 | 0.00 | 0.00 | 0.00 | 28 | 1010.1 |
| 20260903042037 | 28 | 206 | 6.4 | 22.5 | 0.00 | 0.00 | 0.00 | 28 | 1010.0 |
| 20260903041544 | 28 | 223 | 9.7 | 25.7 | 0.00 | 0.00 | 0.00 | 28 | 1009.8 |
| 20260903041037 | 28 | 167 | 9.7 | 24.1 | 0.00 | 0.00 | 0.00 | 28 | 1009.7 |
| 20260903040535 | 28 | 236 | 6.4 | 14.5 | 0.00 | 0.00 | 0.00 | 30 | 1009.7 |
| 20260903040035 | 28 | 244 | 4.8 | 14.5 | 0.00 | 0.00 | 0.00 | 30 | 1009.6 |
| 20260903035534 | 28 | 191 | 6.4 | 16.1 | 0.00 | 0.00 | 0.00 | 29 | 1009.6 |
| 20260903035034 | 28 | 205 | 6.4 | 17.7 | 0.00 | 0.00 | 0.00 | 31 | 1009.5 |
| 20260903034537 | 28 | 196 | 8.0 | 20.9 | 0.00 | 0.00 | 0.00 | 31 | 1009.4 |
| 20260903034035 | 27 | 244 | 9.7 | 35.4 | 0.00 | 0.00 | 0.00 | 32 | 1009.4 |
| 20260903033533 | 27 | 240 | 14.5 | 35.4 | 0.00 | 0.00 | 0.00 | 31 | 1009.4 |
| 20260903033033 | 27 | 252 | 9.7 | 25.7 | 0.00 | 0.00 | 0.00 | 32 | 1009.4 |
| 20260903032535 | 27 | 256 | 12.9 | 24.1 | 0.00 | 0.00 | 0.00 | 31 | 1009.5 |
| 20260903032032 | 28 | 237 | 14.5 | 25.7 | 0.00 | 0.00 | 0.00 | 32 | 1009.6 |
| 20260903031536 | 28 | 220 | 11.3 | 24.1 | 0.00 | 0.00 | 0.00 | 31 | 1009.6 |
| 20260903031031 | 28 | 238 | 9.7 | 19.3 | 0.00 | 0.00 | 0.00 | 31 | 1009.6 |
| 20260903030530 | 28 | 169 | 8.0 | 17.7 | 0.00 | 0.00 | 0.00 | 32 | 1009.4 |
| 20260903030030 | 28 | 265 | 6.4 | 27.4 | 0.00 | 0.00 | 0.00 | 33 | 1009.3 |
| 20260903025532 | 28 | 235 | 12.9 | 27.4 | 0.00 | 0.00 | 0.00 | 31 | 1009.2 |
| 20260903025028 | 28 | 236 | 9.7 | 25.7 | 0.00 | 0.00 | 0.00 | 35 | 1009.2 |
| 20260903024527 | 28 | 244 | 9.7 | 24.1 | 0.00 | 0.00 | 0.00 | 35 | 1009.2 |
| 20260903024028 | 27 | 154 | 8.0 | 25.7 | 0.00 | 0.00 | 0.00 | 34 | 1009.2 |
| 20260903023530 | 27 | 132 | 8.0 | 25.7 | 0.00 | 0.00 | 0.00 | 35 | 1009.3 |
| 20260903023031 | 28 | 232 | 9.7 | 25.7 | 0.00 | 0.00 | 0.00 | 35 | 1009.3 |
| 20260903022524 | 28 | 248 | 12.9 | 30.6 | 0.00 | 0.00 | 0.00 | 35 | 1009.4 |
| 20260903022023 | 28 | 229 | 12.9 | 30.6 | 0.00 | 0.00 | 0.00 | 35 | 1009.4 |
| 20260903021524 | 27 | 246 | 14.5 | 32.2 | 0.00 | 0.00 | 0.00 | 36 | 1009.3 |
| 20260903021022 | 27 | 247 | 14.5 | 32.2 | 0.00 | 0.00 | 0.00 | 36 | 1009.2 |
| 20260903020523 | 27 | 249 | 11.3 | 35.4 | 0.00 | 0.00 | 0.00 | 37 | 1009.2 |
| 20260903020051 | 27 | 265 | 19.3 | 35.4 | 0.00 | 0.00 | 0.00 | 37 | 1009.3 |
| 20260903015518 | 27 | 246 | 14.5 | 32.2 | 0.00 | 0.00 | 0.00 | 37 | 1009.3 |
| 20260903015017 | 27 | 217 | 12.9 | 32.2 | 0.00 | 0.00 | 0.00 | 37 | 1009.2 |
| 20260903014516 | 27 | 255 | 6.4 | 24.1 | 0.00 | 0.00 | 0.00 | 39 | 1009.2 |
| 20260903014016 | 27 | 209 | 9.7 | 24.1 | 0.00 | 0.00 | 0.00 | 39 | 1009.2 |
| 20260903013514 | 27 | 207 | 9.7 | 33.8 | 0.00 | 0.00 | 0.00 | 39 | 1009.2 |
| 20260903013014 | 27 | 219 | 16.1 | 33.8 | 0.00 | 0.00 | 0.00 | 39 | 1009.2 |
| 20260903012512 | 27 | 250 | 14.5 | 30.6 | 0.00 | 0.00 | 0.00 | 39 | 1009.2 |
| 20260903012012 | 27 | 255 | 8.0 | 29.0 | 0.00 | 0.00 | 0.00 | 39 | 1009.1 |
| 20260903011511 | 27 | 284 | 11.3 | 32.2 | 0.00 | 0.00 | 0.00 | 40 | 1009.1 |
| 20260903011010 | 27 | 234 | 14.5 | 32.2 | 0.00 | 0.00 | 0.00 | 39 | 1008.9 |
| 20260903010511 | 27 | 246 | 16.1 | 27.4 | 0.00 | 0.00 | 0.00 | 40 | 1009.1 |
| 20260903010009 | 26 | 240 | 12.9 | 37.0 | 0.00 | 0.00 | 0.00 | 40 | 1009.1 |
| 20260903005507 | 26 | 293 | 12.9 | 37.0 | 0.00 | 0.00 | 0.00 | 40 | 1009.1 |
| 20260903005011 | 26 | 244 | 16.1 | 33.8 | 0.00 | 0.00 | 0.00 | 40 | 1009.2 |
| 20260903004504 | 26 | 237 | 16.1 | 30.6 | 0.00 | 0.00 | 0.00 | 40 | 1009.2 |
| 20260903004003 | 26 | 224 | 11.3 | 41.8 | 0.00 | 0.00 | 0.00 | 41 | 1009.2 |
| 20260903003501 | 26 | 347 | 24.1 | 43.5 | 0.00 | 0.00 | 0.00 | 40 | 1009.2 |
| 20260903003101 | 26 | 256 | 8.0 | 40.2 | 0.00 | 0.00 | 0.00 | 42 | 1009.3 |
| 20260903002559 | 26 | 269 | 24.1 | 46.7 | 0.00 | 0.00 | 0.00 | 41 | 1009.3 |
| 20260903002058 | 26 | 266 | 24.1 | 46.7 | 0.00 | 0.00 | 0.00 | 41 | 1009.1 |
| 20260903001608 | 25 | 303 | 16.1 | 40.2 | 0.00 | 0.00 | 0.00 | 42 | 1009.3 |
| 20260903001055 | 25 | 275 | 20.9 | 48.3 | 0.00 | 0.00 | 0.00 | 42 | 1009.2 |
| 20260903000554 | 25 | 282 | 25.7 | 48.3 | 0.00 | 0.00 | 0.00 | 41 | 1009.2 |
| 20260903000058 | 25 | 213 | 27.4 | 41.8 | 0.00 | 0.00 | 0.00 | 42 | 1009.2 |
| 20260902235553 | 25 | 225 | 19.3 | 37.0 | 0.00 | 0.00 | 0.00 | 42 | 1009.3 |
| 20260902235051 | 25 | 242 | 19.3 | 37.0 | 0.00 | 0.00 | 0.00 | 43 | 1009.3 |
| 20260902234549 | 25 | 254 | 16.1 | 37.0 | 0.00 | 0.00 | 0.00 | 43 | 1009.3 |
| 20260902234048 | 25 | 245 | 16.1 | 40.2 | 0.00 | 0.00 | 0.00 | 43 | 1009.3 |
| 20260902233548 | 25 | 299 | 25.7 | 40.2 | 0.00 | 0.00 | 0.00 | 43 | 1009.4 |
| 20260902233053 | 25 | 257 | 17.7 | 40.2 | 0.00 | 0.00 | 0.00 | 44 | 1009.6 |
| 20260902232544 | 24 | 301 | 17.7 | 43.5 | 0.00 | 0.00 | 0.00 | 45 | 1009.7 |
| 20260902232043 | 24 | 263 | 22.5 | 43.5 | 0.00 | 0.00 | 0.00 | 45 | 1009.7 |
| 20260902231542 | 23 | 282 | 14.5 | 38.6 | 0.00 | 0.00 | 0.00 | 48 | 1009.7 |
| 20260902231040 | 23 | 255 | 19.3 | 38.6 | 0.00 | 0.00 | 0.00 | 49 | 1009.7 |
| 20260902230538 | 23 | 244 | 8.0 | 22.5 | 0.00 | 0.00 | 0.00 | 52 | 1009.8 |
| 20260902230037 | 22 | 281 | 12.9 | 25.7 | 0.00 | 0.00 | 0.00 | 51 | 1009.8 |
| 20260902225540 | 22 | 320 | 12.9 | 27.4 | 0.00 | 0.00 | 0.00 | 52 | 1009.7 |
| 20260902225037 | 22 | 303 | 12.9 | 29.0 | 0.00 | 0.00 | 0.00 | 52 | 1009.7 |
| 20260902224534 | 22 | 279 | 9.7 | 29.0 | 0.00 | 0.00 | 0.00 | 53 | 1009.7 |
| 20260902224034 | 22 | 248 | 12.9 | 22.5 | 0.00 | 0.00 | 0.00 | 53 | 1009.8 |
| 20260902223531 | 21 | 278 | 8.0 | 24.1 | 0.00 | 0.00 | 0.00 | 53 | 1009.9 |
| 20260902223030 | 21 | 293 | 9.7 | 24.1 | 0.00 | 0.00 | 0.00 | 54 | 1009.9 |
| 20260902222531 | 21 | 242 | 9.7 | 20.9 | 0.00 | 0.00 | 0.00 | 54 | 1010.0 |
| 20260902222031 | 21 | 260 | 11.3 | 24.1 | 0.00 | 0.00 | 0.00 | 54 | 1010.0 |
| 20260902221542 | 21 | 273 | 9.7 | 24.1 | 0.00 | 0.00 | 0.00 | 55 | 1010.1 |
| 20260902221030 | 21 | 286 | 12.9 | 29.0 | 0.00 | 0.00 | 0.00 | 55 | 1010.2 |